Location: Asheville, NC
(35.6000°N, 82.5500°W)
Time: 00:20:29
(UTC-04:00)

BEESAT 3 - Pass Details

Date: 12 March 2018
Orbit: 499 x 517 km, 64.9° (Epoch: 18 June)

Event Time Altitude Azimuth Distance (km) Brightness Sun altitude
Exits shadow 06:44:10 16° 302° (WNW) 1,419 ? -13.2°
Maximum altitude 06:46:43 31° 247° (WSW) 905 ? -12.7°
Drops below altitude 10° 06:50:08 10° 183° (S) 1,715 ? -12.0°
Sets 06:52:26 0° 173° (S) 2,591 ? -11.5°
